Location: Jetmore
(38.0845°N, 99.8935°W)
Time: 13:40:21
(UTC+00:00)

Envisat - Pass Details

Date: 23 September 2021
Orbit: 764 x 766 km, 98.2° (Epoch: 23 October)

Event Time Altitude Azimuth Distance (km) Brightness Sun altitude
Rises 11:53:37 0° 11° (N) 3,238 6.5 -7.7°
Reaches altitude 10° 11:55:55 10° 11° (N) 2,308 5.7 -7.2°
Maximum altitude 12:01:01 83° 285° (WNW) 774 3.0 -6.2°
Drops below altitude 10° 12:06:04 10° 197° (SSW) 2,291 5.3 -5.2°
Sets 12:08:22 0° 196° (SSW) 3,213 6.0 -4.8°
